Regional Weather Roundup
Issued by NWS

Home | Current Version | Previous Version | Graphics & Text | Print | Product List | Glossary On
Versions: 1 2 3 4 5 6 7 8 9 10 11 12 13 14 15 16 17 18 19 20 21 22 23 24 25 26 27 28 29 30 31 32 33 34 35 36 37 38 39 40 41 42 43 44 45 46 47 48 49 50
000
ASUS45 KABQ 010410
RWRNM
WEATHER ROUNDUP FOR NEW MEXICO
NATIONAL WEATHER SERVICE ALBUQUERQUE NM
900 PM MST SAT JAN 31 2015

NOTE: "FAIR" MEANS FEW OR NO CLOUDS BELOW 12,000 FEET AGL WITH NO
       SIGNIFICANT WEATHER OR OBSTRUCTIONS TO VISION.

      THIS PRODUCT IS RELEASED AS TWO VERSIONS.  ONE VERSION NEAR
      THE TOP OF THE HOUR CONTAINING PRELIMINARY DATA FROM ALBUQUERQUE
      AND OTHER STATIONS.  A FINAL VERSION WITH ADDITIONAL DATA IS
      ISSUED ABOUT 10 MINUTES AFTER THE HOUR.

NMZ501-503-504-510>518-010500-
NORTHWEST PLATEAU/NORTHCENTRAL MOUNTAINS

CITY           SKY/WX    TMP DP  RH WIND       PRES   REMARKS
FARMINGTON     PTCLDY    36  33  89 W12       29.94R WCI  28
LOS ALAMOS     MOCLDY    30  30 100 CALM      29.91R FOG
SANTA FE       FOG       33  31  92 CALM      29.91R VSB 1/2
TAOS           CLOUDY    30  28  93 NW5       29.91R WCI  25
ANGEL FIRE     FAIR      29  25  84 W6          N/A  WCI  23

$$
NMZ402-403-502-505>509-010500-
WESTCENTRAL MOUNTAINS/SOUTHWEST MOUNTAINS

CITY           SKY/WX    TMP DP  RH WIND       PRES   REMARKS
GALLUP         CLOUDY    34  32  92 CALM      29.98S
GRANTS         CLOUDY    33  33  98 CALM      29.98S
SILVER CITY    CLEAR     39  37  93 W7        29.97R WCI  34

$$
NMZ407-409-411-412-010500-
SOUTHERN DESERTS

CITY           SKY/WX    TMP DP  RH WIND       PRES   REMARKS
LORDSBURG      MOCLDY    43  41  93 W6        29.95S
DEMING         PTCLDY    44  43  96 W8        29.93R
LAS CRUCES     MOCLDY    45  43  93 SW5       29.94R
HOLLOMAN AFB   PTCLDY    44  44  99 CALM      29.90R
ALAMOGORDO     CLOUDY    46  45  93 CALM      29.92R
T OR C         MOCLDY    45  42  89 NW7       29.91R

$$
NMZ519>523-010500-
CENTRAL VALLEYS/CENTRAL HIGHLANDS

CITY           SKY/WX    TMP DP  RH WIND       PRES   REMARKS
ALBUQUERQUE    PTCLDY    37  35  92 NW3       29.95R
DOUBLE EAGLE   MOCLDY    27  27 100 CALM      29.95R
MORIARTY ARPT  FAIR      34  31  87 NW8       29.92R WCI  27
CLINES CORNERS PTCLDY    32  29  88 NW17      29.87R WCI  21
BELEN          FAIR      34  34 100 CALM      29.94R
SOCORRO        CLOUDY    42  40  92 N3        29.93R

$$
NMZ524>526-539-540-010500-
SOUTHCENTRAL MOUNTAINS

CITY           SKY/WX    TMP DP  RH WIND       PRES   REMARKS
RUIDOSO        MOCLDY    37  34  87 NE3       29.93R

$$
NMZ527>531-010500-
NORTHEAST HIGHLANDS/NORTHEAST PLAINS

CITY           SKY/WX    TMP DP  RH WIND       PRES   REMARKS
LAS VEGAS      MOCLDY    33  29  85 NW3       29.82R
RATON          PTCLDY    28  26  92 N3        29.81R
CLAYTON        LGT RAIN  36  35  96 N10       29.82R WCI  28

$$
NMZ532>537-010500-
EASTCENTRAL PLAINS

CITY           SKY/WX    TMP DP  RH WIND       PRES   REMARKS
TUCUMCARI      PTCLDY    39  37  92 W10       29.80R WCI  32
CANNON AFB     PTCLDY    39 N/A N/A CALM      29.82F
CLOVIS AIRPORT CLOUDY    39  37  93 SW20      29.82F WCI  30

$$
NMZ028-029-538-010500-
SOUTHEAST PLAINS

CITY           SKY/WX    TMP DP  RH WIND       PRES   REMARKS
ROSWELL        CLOUDY    44  41  89 CALM      29.87S
ARTESIA        CLOUDY    43  43 100 CALM      29.89S FOG
CARLSBAD       FOG       47  45  93 S12       29.87R VSB 3/4
HOBBS          CLOUDY    46  46 100 S10       29.88S FOG


$$


USA.gov is the U.S. government's official web portal to all federal, state and local government web resources and services.